Home > Weather > Samsun > Past weeks

Flag for Turkey Past Weather in Samsun, Turkey — Yesterday and Last 2 Weeks

Now
66 °F

Passing clouds.


Feels Like: 66 °F
Forecast: 66 / 87 °F
Wind: 3 mph from East

Location: Samsun / Carsamba

Current Time: Jul 28, 2016 at 6:11:10 AM

Latest Report: Jul 28, 2016 at 4:50 AM


Visibility: 5 mi

Pressure: 29.86 "Hg

Humidity: 88%

Dew Point: 63 °F

Location of SamsunLocation

Past Weather in Samsun — Graph

°F

Samsun Temperature Yesterday

Maximum temperature yesterday: 82 °F (at 12:50 PM)
Minimum temperature yesterday: 63 °F (at 4:50 AM)
Average temperature yesterday: 74 °F

High & Low Weather Summary for the Past Weeks

 TemperatureHumidityPressure
High90 °F (Jul 16, 12:50 PM)94% (Jul 13, 4:50 AM)30.01 "Hg (Jul 13, 4:50 AM)
Low57 °F (Jul 24, 4:50 AM)45% (Jul 23, 4:50 PM)29.68 "Hg (Jul 17, 4:50 PM)
Average75 °F74%29.86 "Hg
* Reported Jul 13 4:50 AM — Jul 28 4:50 AM, Samsun, Weather by CustomWeather, © 2016

Note: Actual official high and low records may vary slightly from our data, if they occured in-between our weather recording intervals... More about our weather records

Advertising

Samsun Weather History for the Previous 24 Hours

Scroll right to see more
 ConditionsComfort  
Time TempWeatherWind HumidityBarometerVisibility
4:50 AM
Thu, Jul 28
66 °FPassing clouds.3 mph88%29.86 "Hg5 mi
3:50 AM66 °FPassing clouds.3 mph94%29.86 "Hg4 mi
2:50 AM66 °FPassing clouds.1 mph94%29.86 "Hg4 mi
1:50 AM68 °FPartly cloudy.1 mph88%29.86 "Hg4 mi
12:50 AM70 °FPartly cloudy.3 mph88%29.86 "Hg5 mi
11:50 PM
Wed, Jul 27
70 °FPassing clouds.3 mph88%29.86 "Hg5 mi
10:50 PM70 °FPassing clouds.3 mph88%29.86 "Hg4 mi
9:50 PM72 °FPassing clouds.2 mph88%29.86 "HgN/A
8:50 PM73 °FScattered clouds.No wind89%29.89 "HgN/A
7:50 PM75 °FScattered clouds.1 mph83%29.86 "HgN/A
6:50 PM79 °FScattered clouds.5 mph74%29.86 "HgN/A
5:50 PM79 °FScattered clouds.6 mph79%29.86 "HgN/A
4:50 PM81 °FPassing clouds.9 mph70%29.86 "HgN/A
3:50 PM81 °FPassing clouds.9 mph66%29.86 "HgN/A
2:50 PM81 °FPassing clouds.9 mph66%29.86 "HgN/A
1:50 PM81 °FPassing clouds.10 mph66%29.86 "HgN/A
12:50 PM82 °FPassing clouds.9 mph58%29.86 "HgN/A
11:50 AM81 °FPassing clouds.7 mph62%29.89 "HgN/A
10:50 AM79 °FPassing clouds.8 mph65%29.89 "HgN/A
9:50 AM79 °FPassing clouds.8 mph61%29.89 "HgN/A
8:50 AM79 °FPassing clouds.2 mph65%29.89 "HgN/A
7:50 AM73 °FScattered clouds.No wind74%29.89 "HgN/A
6:50 AM66 °FPassing clouds.3 mph88%29.89 "HgN/A
Weather by CustomWeather, © 2016

See weather overviewHow to use our weather pages